Location: Biltmore Gardens
(41.6070°N, 83.4666°W)
Time: 14:20:14
(UTC+00:00)

SL-27 R/B - Pass Details

Date: 14 July 2020
Orbit: 420 x 470 km, 74.7° (Epoch: 04 August)

Event Time Altitude Azimuth Distance (km) Brightness Sun altitude
Exits shadow 08:35:02 13° 164° (SSE) 1,407 4.6 -14.9°
Maximum altitude 08:37:43 33° 103° (ESE) 781 3.9 -14.6°
Drops below altitude 10° 08:40:52 10° 38° (NE) 1,579 6.6 -14.2°
Sets 08:43:04 0° 28° (NNE) 2,445 7.8 -13.9°
